TimeAKST,TemperatureF,Dew PointF,Humidity,Sea Level PressureIn,VisibilityMPH,Wind Direction,Wind SpeedMPH,Gust SpeedMPH,PrecipitationIn,Events,Conditions,WindDirDegrees,DateUTC
12:53 AM,1.9,-9.9,58,30.37,10.0,NNE,20.7,-,N/A,,Clear,30,2013-01-19 09:53:00
1:53 AM,3.9,-9.9,53,30.35,10.0,NNE,19.6,-,N/A,,Clear,30,2013-01-19 10:53:00
2:53 AM,3.9,-8.0,58,30.33,10.0,NNE,23.0,29.9,N/A,,Clear,30,2013-01-19 11:53:00
3:53 AM,3.9,-8.0,58,30.31,10.0,NNE,20.7,-,N/A,,Clear,30,2013-01-19 12:53:00
4:53 AM,3.0,-9.0,57,30.27,10.0,North,18.4,-,N/A,,Clear,10,2013-01-19 13:53:00
5:53 AM,3.9,-9.9,53,30.25,10.0,NNE,16.1,-,N/A,,Clear,20,2013-01-19 14:53:00
6:53 AM,5.0,-8.0,55,30.21,10.0,NNE,18.4,27.6,N/A,,Clear,20,2013-01-19 15:53:00
7:53 AM,6.1,-9.0,50,30.17,10.0,NNE,20.7,-,N/A,,Clear,20,2013-01-19 16:53:00
8:53 AM,3.9,-9.0,55,30.15,10.0,NE,18.4,-,N/A,,Clear,40,2013-01-19 17:53:00
9:53 AM,5.0,-9.0,52,30.12,10.0,NE,19.6,-,N/A,,Clear,50,2013-01-19 18:53:00
10:53 AM,5.0,-9.0,52,30.09,10.0,NE,18.4,-,N/A,,Partly Cloudy,40,2013-01-19 19:53:00
11:53 AM,5.0,-8.0,55,30.08,10.0,NE,13.8,-,N/A,,Scattered Clouds,40,2013-01-19 20:53:00
12:53 PM,3.9,-7.1,60,30.06,10.0,NNE,19.6,-,N/A,,Scattered Clouds,30,2013-01-19 21:53:00
1:06 PM,3.2,-5.8,66,30.04,10.0,NNE,20.7,26.5,N/A,,Mostly Cloudy,30,2013-01-19 22:06:00
1:18 PM,5.0,-5.8,61,30.05,10.0,NNE,20.7,-,N/A,Snow,Low Drifting Snow,30,2013-01-19 22:18:00
1:53 PM,6.1,-6.0,58,30.03,10.0,NNE,21.9,-,N/A,Snow,Low Drifting Snow,20,2013-01-19 22:53:00
2:53 PM,6.1,-4.0,63,29.99,10.0,NNE,25.3,32.2,N/A,Snow,Low Drifting Snow,30,2013-01-19 23:53:00
3:53 PM,6.1,-4.0,63,29.95,10.0,NNE,21.9,28.8,N/A,,Mostly Cloudy,30,2013-01-20 00:53:00
4:53 PM,8.1,-0.9,67,29.91,9.0,NE,21.9,27.6,0.00,Snow,Light Snow,40,2013-01-20 01:53:00
5:46 PM,10.4,3.2,73,29.88,2.0,NNE,23.0,32.2,0.00,Snow,Light Snow,20,2013-01-20 02:46:00
5:53 PM,10.9,5.0,77,29.89,2.5,NNE,20.7,-,0.00,Snow,Light Snow,20,2013-01-20 02:53:00
6:01 PM,10.4,6.8,85,29.88,3.0,NNE,18.4,26.5,0.00,Snow,Light Snow,30,2013-01-20 03:01:00
6:53 PM,14.0,9.0,80,29.84,3.0,NNE,23.0,28.8,0.00,Snow,Light Snow,30,2013-01-20 03:53:00
7:16 PM,14.0,8.6,79,29.83,2.0,NE,20.7,29.9,0.00,Snow,Light Snow,40,2013-01-20 04:16:00
7:50 PM,15.8,10.4,79,29.81,1.8,NE,26.5,33.4,0.00,Snow,Light Snow,40,2013-01-20 04:50:00
7:53 PM,15.1,10.9,84,29.81,1.8,NE,26.5,33.4,0.00,Snow,Light Snow,40,2013-01-20 04:53:00
8:11 PM,15.8,12.2,86,29.80,2.5,NE,23.0,31.1,0.00,Snow,Light Snow,40,2013-01-20 05:11:00
8:31 PM,15.8,12.2,86,29.78,1.8,NE,25.3,32.2,0.00,Snow,Light Snow,40,2013-01-20 05:31:00
8:44 PM,15.8,12.2,86,29.78,2.5,NE,23.0,32.2,0.00,Snow,Light Snow,40,2013-01-20 05:44:00
8:51 PM,15.8,12.2,86,29.78,3.0,NE,24.2,32.2,0.00,Snow,Light Snow,40,2013-01-20 05:51:00
8:53 PM,16.0,12.0,84,29.78,2.5,NE,23.0,32.2,0.00,Snow,Light Snow,40,2013-01-20 05:53:00
9:28 PM,17.6,14.0,86,29.77,1.8,NE,21.9,29.9,0.02,Snow,Light Snow,40,2013-01-20 06:28:00
9:53 PM,18.0,14.0,84,29.75,1.8,NE,23.0,33.4,0.02,Snow,Light Snow,50,2013-01-20 06:53:00
10:00 PM,17.6,14.0,86,29.74,2.5,NE,25.3,32.2,0.00,Snow,Light Snow,50,2013-01-20 07:00:00
10:07 PM,17.6,14.0,86,29.73,3.0,NE,21.9,34.5,0.00,Snow,Light Snow,50,2013-01-20 07:07:00
10:53 PM,19.0,14.0,81,29.72,5.0,NE,20.7,29.9,0.00,Snow,Light Snow,50,2013-01-20 07:53:00
11:41 PM,19.4,15.8,86,29.70,2.0,NE,23.0,31.1,0.02,Snow,Light Snow,50,2013-01-20 08:41:00
11:53 PM,21.0,17.1,85,29.70,3.0,NE,24.2,33.4,0.02,Snow,Light Snow,50,2013-01-20 08:53:00